Date String (YYYY-MM-DD hh:mm:ss) UTC,Instrument flags,Ambient pressure (hPa),Sample flow (lpm),Bypass flow (lpm),Sample temperature (°C),Ambient temperature (°C),ASC tube jacket temperature (°C),LED temperature (°C),Box temperature (°C),Sample RH (%),Span deviation,Mass concentration (μg/m³),Mass concentration (μg/m³),Mass concentration (μg/m³)
DateTimeUTC,F1_M11,P_M11,Q1_M11,Q2_M11,T1_M11,T2_M11,T3_M11,T4_M11,T5_M11,U1_M11,ZSPAN_M11,X0_M11,X2_M11,X1_M11
2022-11-12 20:00:00,,0825.8,5.00,0.00,24.2,23.1,00.0,32.9,26.2,07.9,0002.7,0011.92,0007.69,0007.15
2022-11-12 20:01:00,,0826.0,5.00,0.00,24.2,23.1,00.0,32.9,26.2,07.9,0002.3,0011.42,0007.63,0007.09
2022-11-12 20:02:00,,0825.7,5.01,0.00,24.2,23.1,00.0,32.9,26.2,07.9,0001.9,0011.62,0007.57,0007.02
2022-11-12 20:03:00,,0826.0,4.99,0.00,24.3,23.1,00.0,32.9,26.2,07.9,0002.0,0011.61,0007.51,0006.97
2022-11-12 20:04:00,,0825.9,5.00,0.00,24.3,23.1,00.0,33.0,26.3,07.8,0002.2,0011.46,0007.44,0006.90
2022-11-12 20:05:00,,0825.7,5.00,0.00,24.3,23.2,00.0,33.0,26.2,07.6,0002.5,0011.62,0007.39,0006.84
2022-11-12 20:06:00,,0825.7,5.00,0.00,24.3,23.2,00.0,33.0,26.3,07.6,0002.3,0012.04,0007.32,0006.76
2022-11-12 20:07:00,,0825.7,5.00,0.00,24.3,23.2,00.0,33.0,26.3,07.6,0002.0,0012.10,0007.23,0006.68
2022-11-12 20:08:00,,0825.7,5.02,0.00,24.3,23.2,00.0,33.0,26.3,07.5,0002.0,0012.27,0007.22,0006.61
2022-11-12 20:09:00,,0825.6,5.00,0.00,24.3,23.2,00.0,33.0,26.3,07.8,0002.0,0012.23,0007.18,0006.58
2022-11-12 20:10:00,,0825.7,5.00,0.00,24.3,23.2,00.0,33.0,26.3,08.0,0001.2,0012.26,0007.20,0006.61
2022-11-12 20:11:00,,0825.6,5.00,0.00,24.4,23.2,00.0,33.0,26.3,08.1,0000.7,0012.19,0007.21,0006.64
2022-11-12 20:12:00,,0825.6,5.00,0.00,24.4,23.2,00.0,33.0,26.3,08.1,0000.3,0012.74,0007.32,0006.70
2022-11-12 20:13:00,,0825.7,5.01,0.00,24.4,23.2,00.0,33.1,26.3,08.1,0000.4,0013.02,0007.39,0006.75
2022-11-12 20:14:00,,0825.6,5.00,0.00,24.4,23.2,00.0,33.1,26.4,08.0,0000.2,0013.14,0007.40,0006.77
2022-11-12 20:15:00,,0825.6,4.99,0.00,24.4,23.2,00.0,33.1,26.4,08.0,0000.2,0013.18,0007.42,0006.81
2022-11-12 20:16:00,,0825.6,4.99,0.00,24.4,23.2,00.0,33.1,26.4,08.0,0000.5,0013.48,0007.47,0006.87
2022-11-12 20:17:00,,0825.7,5.00,0.00,24.4,23.3,00.0,33.1,26.4,08.1,0001.0,0013.00,0007.50,0006.93
2022-11-12 20:18:00,,0825.8,5.00,0.00,24.4,23.3,00.0,33.1,26.4,08.2,0001.5,0013.13,0007.57,0007.00
2022-11-12 20:19:00,,0825.6,5.02,0.00,24.5,23.3,00.0,33.1,26.4,08.1,0001.5,0013.52,0007.63,0007.08
2022-11-12 20:20:00,,0825.6,5.00,0.00,24.5,23.3,00.0,33.1,26.4,08.2,0001.5,0013.89,0007.74,0007.15
2022-11-12 20:21:00,,0825.6,5.00,0.00,24.5,23.3,00.0,33.2,26.4,08.2,0002.1,0014.01,0007.81,0007.18
2022-11-12 20:22:00,,0825.6,5.00,0.00,24.5,23.3,00.0,33.2,26.4,08.1,0001.7,0013.99,0007.80,0007.19
2022-11-12 20:23:00,,0825.6,5.00,0.00,24.5,23.3,00.0,33.2,26.4,08.3,0001.9,0013.78,0007.76,0007.18
2022-11-12 20:24:00,,0825.6,4.99,0.00,24.5,23.3,00.0,33.2,26.4,08.3,0002.1,0013.89,0007.74,0007.18
2022-11-12 20:25:00,,0825.6,5.00,0.00,24.5,23.3,00.0,33.2,26.5,08.4,0002.4,0013.91,0007.78,0007.21
2022-11-12 20:26:00,,0825.6,5.01,0.00,24.5,23.4,00.0,33.2,26.5,08.3,0002.0,0014.26,0007.85,0007.25
2022-11-12 20:27:00,,0825.6,5.00,0.00,24.5,23.4,00.0,33.2,26.5,08.3,0001.3,0013.66,0007.88,0007.29
2022-11-12 20:28:00,,0825.6,5.00,0.00,24.5,23.4,00.0,33.2,26.5,08.3,0001.9,0013.86,0007.95,0007.32
2022-11-12 20:29:00,,0825.6,5.00,0.00,24.5,23.4,00.0,33.2,26.5,08.2,0001.3,0013.95,0008.00,0007.35
2022-11-12 20:30:00,,0825.6,5.01,0.00,24.6,23.4,00.0,33.3,26.5,08.0,0000.8,0014.10,0007.98,0007.36
2022-11-12 20:31:00,,0825.6,5.00,0.00,24.6,23.4,00.0,33.3,26.5,07.9,0000.7,0014.16,0007.92,0007.33
2022-11-12 20:32:00,,0825.6,5.00,0.00,24.6,23.5,00.0,33.3,26.5,07.8,0000.2,0014.41,0007.83,0007.28
2022-11-12 20:33:00,,0825.6,4.99,0.00,24.6,23.5,00.0,33.3,26.5,07.7,-000.0,0014.55,0007.80,0007.23
2022-11-12 20:34:00,,0825.5,4.99,0.00,24.6,23.5,00.0,33.3,26.5,07.7,-000.0,0014.46,0007.77,0007.18
2022-11-12 20:35:00,,0825.6,5.00,0.00,24.6,23.5,00.0,33.3,26.5,07.8,-000.5,0013.72,0007.71,0007.12
2022-11-12 20:36:00,,0825.5,5.01,0.00,24.6,23.5,00.0,33.3,26.6,07.8,-001.2,0013.57,0007.64,0007.08
2022-11-12 20:37:00,,0825.5,5.01,0.00,24.6,23.5,00.0,33.3,26.6,07.8,-000.6,0012.87,0007.55,0007.01
2022-11-12 20:38:00,,0825.5,5.01,0.00,24.6,23.5,00.0,33.3,26.6,07.8,0000.4,0012.91,0007.52,0006.97
2022-11-12 20:39:00,,0825.5,5.01,0.00,24.6,23.5,00.0,33.3,26.6,07.9,0000.3,0013.04,0007.45,0006.93
2022-11-12 20:40:00,,0825.5,5.00,0.00,24.7,23.5,00.0,33.3,26.6,07.9,0001.3,0013.00,0007.44,0006.90
2022-11-12 20:41:00,,0825.5,5.00,0.00,24.7,23.5,00.0,33.3,26.6,07.9,0001.3,0012.59,0007.44,0006.89
2022-11-12 20:42:00,,0825.5,4.99,0.00,24.7,23.5,00.0,33.4,26.6,07.9,0000.4,0012.42,0007.46,0006.91
2022-11-12 20:43:00,,0825.5,5.00,0.00,24.7,23.5,00.0,33.4,26.6,07.9,0000.2,0012.22,0007.48,0006.94
2022-11-12 20:44:00,,0825.4,5.01,0.00,24.7,23.5,00.0,33.4,26.6,08.0,0000.8,0012.07,0007.53,0007.00
2022-11-12 20:45:00,,0825.5,4.99,0.00,24.7,23.5,00.0,33.4,26.6,07.9,0001.1,0012.08,0007.58,0007.06
2022-11-12 20:46:00,,0825.4,4.99,0.00,24.7,23.5,00.0,33.4,26.6,07.9,0001.8,0012.07,0007.62,0007.10
2022-11-12 20:47:00,,0825.5,5.00,0.00,24.7,23.6,00.0,33.4,26.6,08.0,0001.7,0012.07,0007.66,0007.14
2022-11-12 20:48:00,,0825.4,5.00,0.00,24.7,23.6,00.0,33.4,26.7,07.9,0001.9,0012.18,0007.73,0007.19
2022-11-12 20:49:00,,0825.4,4.99,0.00,24.7,23.6,00.0,33.4,26.7,08.0,0002.4,0012.81,0007.79,0007.25
2022-11-12 20:50:00,,0825.4,5.01,0.00,24.7,23.6,00.0,33.4,26.7,07.9,0002.5,0012.54,0007.87,0007.32
2022-11-12 20:51:00,,0825.4,5.01,0.00,24.7,23.6,00.0,33.5,26.7,07.9,0002.7,0012.80,0007.95,0007.37
2022-11-12 20:52:00,,0825.4,5.01,0.00,24.7,23.6,00.0,33.5,26.7,07.9,0003.4,0013.36,0008.01,0007.41
2022-11-12 20:53:00,,0825.4,4.99,0.00,24.8,23.6,00.0,33.5,26.7,07.8,0003.7,0013.33,0008.08,0007.43
2022-11-12 20:54:00,,0825.4,5.00,0.00,24.8,23.6,00.0,33.5,26.7,07.8,0004.0,0013.09,0008.14,0007.47
2022-11-12 20:55:00,,0825.4,5.01,0.00,24.8,23.6,00.0,33.5,26.7,07.9,0004.2,0013.56,0008.16,0007.50
2022-11-12 20:56:00,,0825.4,5.00,0.00,24.8,23.6,00.0,33.5,26.7,07.9,0004.3,0013.54,0008.17,0007.53
2022-11-12 20:57:00,,0825.4,5.00,0.00,24.8,23.6,00.0,33.5,26.7,08.0,0003.9,0013.77,0008.20,0007.58
2022-11-12 20:58:00,,0825.4,5.00,0.00,24.8,23.6,00.0,33.5,26.7,07.9,0004.4,0013.93,0008.21,0007.61
2022-11-12 20:59:00,,0825.4,5.01,0.00,24.8,23.6,00.0,33.5,26.7,07.9,0004.6,0014.05,0008.23,0007.63
